CW9203 Weather Reports


Display with metric or nautical units.
time (UTC)temp
F
wind
direction
speed
MPH
gust
MPH
rain 1hr
in
rain 24hr
in
rain mn
in
humidity
%
barometer
mb
20260505170805 60 88 1.0 2.0 0.00 0.00 0.00 4 1030.2
20260505164304 60 109 1.0 2.0 0.00 0.00 0.00 4 1030.3
20260505163305 60 27 0.0 2.0 0.00 0.00 0.00 4 1030.4
20260505162805 60 84 1.0 3.0 0.00 0.00 0.00 4 1030.3
20260505162306 60 76 2.0 3.0 0.00 0.00 0.00 4 1030.2
20260505160804 60 48 2.0 5.0 0.00 0.00 0.00 4 1030.2
20260505160304 60 51 3.0 7.0 0.00 0.00 0.00 4 1030.2
20260505151305 60 47 3.0 7.0 0.00 0.00 0.00 4 1030.4
20260505150805 60 49 3.0 5.0 0.00 0.00 0.00 4 1030.5
20260505140304 61 50 2.0 5.0 0.00 0.00 0.00 4 1031.1
20260505130304 61 43 1.0 3.0 0.00 0.00 0.00 4 1031.7
20260505124804 61 47 2.0 3.0 0.00 0.00 0.00 4 1031.7
20260505123804 62 45 2.0 3.0 0.00 0.00 0.00 4 1031.6
20260505122305 62 61 2.0 5.0 0.00 0.00 0.00 4 1031.7
20260505121305 62 56 3.0 5.0 0.00 0.00 0.00 4 1031.7
20260505120823 62 41 2.0 3.0 0.00 0.00 0.00 4 1031.8
20260505120305 62 64 3.0 3.0 0.00 0.00 0.00 4 1031.8
20260505115305 62 50 3.0 5.0 0.00 0.00 0.00 4 1031.8
20260505114304 62 61 3.0 5.0 0.00 0.00 0.00 4 1031.7
20260505113805 62 70 2.0 5.0 0.00 0.00 0.00 4 1031.7
20260505113304 62 65 2.0 3.0 0.00 0.00 0.00 4 1031.6
20260505112804 62 61 2.0 5.0 0.00 0.00 0.00 4 1031.7
20260505112305 62 44 3.0 5.0 0.00 0.00 0.00 4 1031.7
20260505111804 62 39 2.0 5.0 0.00 0.00 0.00 4 1031.9
20260505110305 62 39 2.0 3.0 0.00 0.00 0.00 4 1031.9
20260505101804 62 34 2.0 5.0 0.00 0.00 0.00 4 1032.2
20260505101305 62 46 3.0 5.0 0.00 0.00 0.00 4 1032.2
20260505100305 62 51 3.0 5.0 0.00 0.00 0.00 4 1032.2
20260505095305 62 51 2.0 3.0 0.00 0.00 0.00 4 1032.2
20260505094804 62 65 1.0 2.0 0.00 0.00 0.00 4 1032.2
20260505094305 61 66 1.0 3.0 0.00 0.00 0.00 4 1032.2
20260505092804 61 39 1.0 3.0 0.00 0.00 0.00 4 1032.2
20260505091805 61 43 1.0 2.0 0.00 0.00 0.00 4 1032.2
20260505085810 61 58 0.0 1.0 0.00 0.00 0.00 4 1032.1
20260505083806 61 72 0.0 1.0 0.00 0.00 0.00 4 1032.0
20260505082305 61 71 0.0 1.0 0.00 0.00 0.00 4 1032.0
20260505081304 61 76 1.0 2.0 0.00 0.00 0.00 4 1032.0
20260505080804 61 57 1.0 3.0 0.00 0.00 0.00 4 1031.9
20260505080305 61 80 2.0 3.0 0.00 0.00 0.00 4 1031.9
20260505075305 62 84 2.0 3.0 0.00 0.00 0.00 4 1031.9
20260505074804 62 76 2.0 3.0 0.00 0.00 0.00 4 1031.9
20260505074305 62 66 2.0 5.0 0.00 0.00 0.00 4 1032.0
20260505072805 62 50 2.0 5.0 0.00 0.00 0.00 4 1031.9
20260505072305 62 47 3.0 6.0 0.00 0.00 0.00 4 1031.8
20260505071804 62 59 3.0 6.0 0.00 0.00 0.00 4 1031.9
20260505070804 62 53 5.0 8.0 0.00 0.00 0.00 4 1031.8
20260505064804 63 64 4.0 9.0 0.00 0.00 0.00 4 1031.7
20260505064304 63 47 5.0 7.0 0.00 0.00 0.00 4 1031.7
20260505063306 63 36 6.0 9.0 0.00 0.00 0.00 4 1031.7
20260505062805 63 44 4.0 7.0 0.00 0.00 0.00 4 1031.7
20260505061305 63 65 5.0 9.0 0.00 0.00 0.00 4 1031.7
20260505060304 63 49 5.0 10.0 0.00 0.00 0.00 4 1031.7
20260505055304 63 51 4.0 8.0 0.00 0.00 0.00 4 1031.7
20260505054304 63 24 3.0 8.0 0.00 0.00 0.00 4 1031.7
20260505051804 63 54 4.0 9.0 0.00 0.00 0.00 4 1031.7
20260505051305 63 48 4.0 12.0 0.00 0.00 0.00 4 1031.7
20260505050304 64 42 3.0 10.0 0.00 0.00 0.00 4 1031.8
20260505040804 64 61 6.0 12.0 0.00 0.00 0.00 4 1031.9
20260505040304 64 48 5.0 12.0 0.00 0.00 0.00 4 1031.8
20260505035304 64 50 7.0 12.0 0.00 0.00 0.00 4 1031.8
20260505034804 64 47 5.0 12.0 0.00 0.00 0.00 4 1031.7
20260505033304 64 54 6.0 10.0 0.00 0.00 0.00 6 1031.8
20260505032304 64 65 6.0 10.0 0.00 0.00 0.00 11 1031.8
20260505031804 64 49 7.0 12.0 0.00 0.00 0.00 17 1031.8
20260505025804 65 71 5.0 12.0 0.00 0.00 0.00 24 1031.7
20260505024804 65 33 5.0 12.0 0.00 0.00 0.00 16 1031.7
20260505021804 65 69 6.0 12.0 0.00 0.00 0.00 27 1031.9
20260505020805 65 54 8.0 12.0 0.00 0.00 0.00 41 1031.8
20260505020304 66 52 7.0 12.0 0.00 0.00 0.00 40 1031.8
20260505015805 65 49 5.0 14.0 0.00 0.00 0.00 35 1031.8
20260505014805 66 50 9.0 12.0 0.00 0.00 0.00 46 1031.9
20260505014304 66 50 5.0 14.0 0.00 0.00 0.00 42 1031.9
20260505012806 66 32 8.0 16.0 0.00 0.00 0.00 43 1032.0
20260505012305 66 51 5.0 9.0 0.00 0.00 0.00 34 1032.0
20260505011805 65 73 7.0 12.0 0.00 0.00 0.00 38 1032.1
20260505011305 65 55 5.0 10.0 0.00 0.00 0.00 35 1032.1
20260505010805 65 58 7.0 10.0 0.00 0.00 0.00 32 1032.3
20260505005804 64 65 6.0 12.0 0.00 0.00 0.00 30 1032.5
20260505004805 64 44 7.0 12.0 0.00 0.00 0.00 27 1032.7
20260505004305 64 27 6.0 12.0 0.00 0.00 0.00 25 1032.8
20260505003804 64 45 6.0 12.0 0.00 0.00 0.00 21 1032.8
20260505002804 64 52 7.0 12.0 0.00 0.00 0.00 15 1033.0
20260505000305 64 72 7.0 13.0 0.00 0.00 0.00 33 1033.2
20260504232805 64 45 6.0 12.0 0.00 0.00 0.00 33 1033.6
20260504231805 63 51 3.0 9.0 0.00 0.00 0.00 11 1033.7
20260504231305 63 38 5.0 9.0 0.00 0.00 0.00 8 1033.8
20260504230807 63 58 5.0 8.0 0.00 0.00 0.00 4 1033.9
20260504230307 63 44 5.0 8.0 0.00 0.00 0.00 4 1034.0
20260504225805 63 51 5.0 9.0 0.00 0.00 0.00 4 1034.0
20260504224805 63 57 6.0 10.0 0.00 0.00 0.00 4 1034.2
20260504224307 63 51 6.0 10.0 0.00 0.00 0.00 4 1034.2
20260504223807 63 63 5.0 8.0 0.00 0.00 0.00 4 1034.2
20260504223305 63 45 4.0 9.0 0.00 0.00 0.00 4 1034.2
20260504221805 62 47 3.0 7.0 0.00 0.00 0.00 4 1034.3
20260504221307 62 81 5.0 7.0 0.00 0.00 0.00 4 1034.2
20260504220806 61 76 3.0 7.0 0.00 0.00 0.00 4 1034.3
20260504215804 61 67 3.0 8.0 0.00 0.00 0.00 4 1034.4
20260504213304 60 60 2.0 3.0 0.00 0.00 0.00 4 1034.4
20260504212805 60 48 2.0 3.0 0.00 0.00 0.00 4 1034.4
20260504212306 60 81 1.0 3.0 0.00 0.00 0.00 4 1034.3
20260504211805 60 89 1.0 3.0 0.00 0.00 0.00 4 1034.3
20260504211305 59 118 2.0 5.0 0.00 0.00 0.00 4 1034.3
20260504210305 60 126 4.0 6.0 0.00 0.00 0.00 4 1034.3
20260504205806 60 118 4.0 7.0 0.00 0.00 0.00 4 1034.2
20260504203306 59 116 1.0 3.0 0.00 0.00 0.00 4 1034.5
20260504202807 58 115 2.0 3.0 0.00 0.00 0.00 4 1034.4
20260504202305 58 130 0.0 2.0 0.00 0.00 0.00 4 1034.5
20260504201805 58 138 1.0 3.0 0.00 0.00 0.00 4 1034.4
20260504201305 58 165 1.0 3.0 0.00 0.00 0.00 4 1034.4
20260504200804 58 116 0.0 2.0 0.00 0.00 0.00 4 1034.3
20260504195805 58 135 0.0 1.0 0.00 0.00 0.00 4 1034.2
20260504194305 58 151 0.0 3.0 0.00 0.00 0.00 4 1034.1
20260504185805 57 133 0.0 1.0 0.00 0.00 0.00 4 1034.1
20260504184805 57 130 0.0 1.0 0.00 0.00 0.00 4 1034.1
20260504184305 57 131 0.0 1.0 0.00 0.00 0.00 4 1034.1
20260504183305 57 139 0.0 2.0 0.00 0.00 0.00 4 1034.0
20260504182305 57 156 0.0 1.0 0.00 0.00 0.00 4 1034.0
20260504181306 57 114 1.0 3.0 0.00 0.00 0.00 4 1034.1
20260504180807 57 117 2.0 3.0 0.00 0.00 0.00 4 1034.0
20260504175804 57 129 2.0 3.0 0.00 0.00 0.00 4 1034.0
20260504175305 57 126 2.0 3.0 0.00 0.00 0.00 4 1034.0
20260504174805 57 123 0.0 2.0 0.00 0.00 0.00 4 1034.0
20260504174304 57 131 1.0 3.0 0.00 0.00 0.00 4 1034.0
20260504172804 57 118 1.0 3.0 0.00 0.00 0.00 4 1033.9
20260504171305 57 105 1.0 2.0 0.00 0.00 0.00 4 1033.9